This is the latest recevied weather packets stored in our database for station/object K7CTM. If no packets are shown the sender has not sent any weather packets the latest 10 day(s).
| Time | Temp. | Humidity | Pressure | Rain* | Wind** | Luminosity | Snow |
|---|---|---|---|---|---|---|---|
| 1778114125 | 19.44° C | 25% | 1019.5 hPa | 0 mm | - | 153 W/m² | - |
| 1778113820 | 20° C | 25% | 1019.6 hPa | 0 mm | - | 157 W/m² | - |
| 1778113516 | 19.44° C | 25% | 1019.6 hPa | 0 mm | - | 190 W/m² | - |
| 1778113213 | 20° C | 25% | 1019.7 hPa | 0 mm | - | 209 W/m² | - |
| 1778112909 | 19.44° C | 25% | 1019.7 hPa | 0 mm | - | 224 W/m² | - |
| 1778112607 | 19.44° C | 25% | 1019.8 hPa | 0 mm | - | 242 W/m² | - |
| 1778112302 | 19.44° C | 25% | 1019.8 hPa | 0 mm | - | 259 W/m² | - |
| 1778111998 | 20° C | 26% | 1019.9 hPa | 0 mm | - | 270 W/m² | - |
| 1778111696 | 19.44° C | 26% | 1019.9 hPa | 0 mm | - | 289 W/m² | - |
| 1778111391 | 19.44° C | 25% | 1020.2 hPa | 0 mm | - | 255 W/m² | - |
| 1778111089 | 19.44° C | 25% | 1020 hPa | 0 mm | - | 333 W/m² | - |
| 1778110787 | 20° C | 24% | 1019.8 hPa | 0 mm | - | 347 W/m² | - |
| 1778110483 | 19.44° C | 24% | 1019.8 hPa | 0 mm | - | 354 W/m² | - |
| 1778110179 | 20° C | 23% | 1019.9 hPa | 0 mm | - | 375 W/m² | - |
| 1778109876 | 19.44° C | 24% | 1020 hPa | 0 mm | - | 396 W/m² | - |
| 1778109571 | 19.44° C | 24% | 1020 hPa | 0 mm | - | 405 W/m² | - |
| 1778109269 | 19.44° C | 24% | 1019.9 hPa | 0 mm | - | 404 W/m² | - |
| 1778108966 | 20° C | 24% | 1020.2 hPa | 0 mm | - | 440 W/m² | - |
| 1778108663 | 18.89° C | 23% | 1020.2 hPa | 0 mm | - | 459 W/m² | - |
| 1778108359 | 18.89° C | 23% | 1019.9 hPa | 0 mm | - | 474 W/m² | - |
| 1778108057 | 18.89° C | 22% | 1020 hPa | 0 mm | - | 460 W/m² | - |
| 1778107754 | 19.44° C | 24% | 1020.3 hPa | 0 mm | - | 495 W/m² | - |
| 1778107451 | 18.89° C | 22% | 1020.2 hPa | 0 mm | - | 514 W/m² | - |
| 1778107147 | 18.89° C | 22% | 1020.5 hPa | 0 mm | - | 535 W/m² | - |
| 1778106842 | 18.89° C | 23% | 1020.6 hPa | 0 mm | - | 550 W/m² | - |
* Rain latest hour (hover to see other rain measurements)
** Current wind speed in m/s (hover to see current wind gust speed)